Theta_e
334 336 336 335 335 334 334 334 332 332 332 332 331 330 333 335 336 335 337 339 338 337 336 335 333 332 333 333 332 332 334 336 337 337 337 338 339 338 337 336 335 334 335 334 333 336 332 330 329 329 328 327 325 324 324 324 324 323 323 324 321 318 316 316 315 314 311 309 310 309 308 310 314 308 307 306 305 305 305 306 308 304 303 304 304
334 334 334 334 334 333 334 333 332 330 330 332 331 330 334 335 336 336 337 338 338 337 336 336 334 334 333 332 331 331 334 335 334 336 336 338 338 337 336 335 334 333 334 332 333 332 330 328 326 326 326 326 326 325 324 330 323 324 321 318 320 317 315 317 317 314 311 307 306 305 306 305 310 305 306 305 305 305 305 305 305 303 303 304 304
332 334 334 334 333 333 333 333 332 332 331 331 331 331 334 335 336 337 337 337 337 338 337 335 333 334 333 332 333 331 333 336 336 336 337 337 336 336 336 334 333 333 332 333 332 331 329 326 326 325 325 328 323 323 323 322 321 321 319 319 318 318 318 319 317 315 311 309 309 306 302 302 305 303 305 305 305 305 305 305 306 302 302 303 304
330 331 332 333 333 333 333 332 332 332 331 330 330 331 334 335 336 337 336 337 337 338 337 336 336 334 334 334 334 334 333 336 336 335 335 334 334 336 335 333 333 332 332 332 331 328 326 325 325 324 324 323 321 321 320 321 319 320 321 320 321 317 315 317 320 317 313 310 305 304 302 301 299 301 300 303 304 304 304 304 306 304 304 305 300
331 331 332 332 332 332 332 333 333 332 331 330 330 331 334 335 336 337 337 337 337 338 337 336 336 334 334 333 333 333 333 333 332 331 332 333 333 332 333 332 332 332 332 330 329 326 325 324 323 323 322 321 321 320 320 321 319 320 322 319 319 318 315 311 312 316 314 314 311 307 304 303 302 301 300 299 302 301 302 304 310 306 303 307 299
332 331 331 332 332 332 332 332 332 332 332 331 331 331 333 335 336 337 337 337 337 337 337 336 335 333 331 330 330 330 329 330 329 329 328 330 330 329 330 331 330 330 328 327 326 325 323 323 322 321 321 321 322 319 318 316 316 316 316 317 315 317 317 310 309 314 316 317 314 313 310 305 304 301 297 293 303 305 303 304 303 302 303 304 302
332 332 332 331 332 332 332 332 332 332 333 333 332 331 333 335 336 337 337 337 338 337 337 337 334 333 332 332 332 331 329 329 329 330 330 328 328 327 328 327 328 327 326 325 324 324 322 322 321 320 320 321 323 317 315 315 315 315 316 315 315 316 314 311 310 309 307 309 312 311 315 311 305 300 296 296 295 298 300 300 299 301 303 303 305
331 331 331 332 332 332 331 332 333 333 334 333 332 331 332 333 336 336 337 337 338 338 337 337 335 333 332 331 331 331 330 329 329 329 328 328 326 326 326 325 326 326 324 324 324 324 322 321 321 319 319 319 320 315 314 314 315 315 314 313 314 313 312 313 309 307 308 306 313 308 312 307 304 304 303 299 296 295 296 299 300 300 300 300 305
332 331 331 331 331 332 333 333 334 334 334 333 332 332 333 334 335 336 336 337 337 337 337 336 335 333 332 331 330 330 330 329 329 328 327 327 325 324 324 324 324 323 323 323 322 322 324 320 320 318 317 316 317 314 313 313 312 311 310 310 311 310 309 308 308 306 305 305 304 304 304 303 302 303 305 303 298 295 295 295 296 299 300 299 301
332 332 332 332 333 333 334 334 334 334 334 334 333 333 334 334 334 335 335 336 337 337 337 336 335 334 331 331 330 329 329 329 328 327 326 325 324 322 322 323 322 321 321 322 321 321 318 317 317 317 316 316 316 312 312 312 311 310 309 309 309 309 307 308 307 304 305 303 304 305 303 301 300 301 300 300 299 297 296 296 296 295 295 297 300
331 331 332 333 334 334 334 333 333 334 334 334 333 333 334 334 334 334 335 336 336 336 336 335 334 333 332 331 330 329 328 328 326 325 325 323 322 322 322 323 321 320 319 319 318 316 314 316 314 314 315 318 314 311 311 311 310 310 310 309 308 307 306 306 306 304 304 303 302 302 301 301 299 298 298 299 298 296 296 297 297 298 297 297 299
331 331 331 332 332 331 332 332 332 332 333 333 333 333 333 334 334 334 334 335 335 335 335 335 334 333 332 331 330 330 329 328 326 325 324 323 322 321 321 319 319 318 317 316 315 314 315 314 315 313 313 310 310 310 310 310 310 310 309 308 307 306 306 306 304 303 302 302 301 301 301 301 301 300 300 299 299 297 296 296 295 296 298 299 302
330 330 330 331 330 330 331 331 332 332 332 333 333 333 334 334 334 333 333 334 335 334 334 334 334 333 332 331 331 330 329 328 327 325 324 323 322 321 320 318 317 316 315 314 313 313 313 311 310 310 309 310 309 309 309 309 309 308 308 307 306 305 304 304 303 302 302 301 301 300 300 301 300 299 300 299 298 297 297 293 296 296 295 296 298
329 330 330 330 331 331 331 332 332 332 332 333 333 333 334 334 334 334 333 334 334 334 334 333 333 333 332 332 331 331 329 328 327 326 324 323 323 322 320 318 317 316 314 313 313 314 312 312 310 309 309 309 309 308 308 308 308 307 307 306 305 304 304 303 303 302 301 301 301 300 300 300 299 300 298 298 297 296 295 295 294 294 295 295 296
329 329 330 330 331 331 332 332 332 333 333 333 333 333 334 334 334 333 333 334 334 333 333 332 333 333 333 333 332 331 329 328 327 326 324 323 323 322 320 318 317 316 315 314 315 312 311 309 309 308 308 309 309 309 309 308 308 308 307 306 305 304 303 304 302 302 302 300 300 300 301 299 300 299 299 299 298 297 296 295 294 294 292 292 294
328 328 329 330 331 332 332 332 333 333 333 333 333 334 334 334 334 334 334 334 334 333 333 333 333 334 333 332 331 330 329 328 327 326 325 324 323 323 320 318 318 317 316 315 314 311 309 309 309 308 308 308 308 307 307 307 306 306 305 304 304 306 303 302 301 301 301 300 300 299 300 299 300 300 300 299 298 298 298 295 295 294 293 291 291
327 328 329 330 331 332 332 332 333 333 333 333 333 334 334 334 334 334 334 334 334 334 334 334 333 333 333 332 331 329 328 326 325 325 324 323 323 322 320 319 318 318 317 315 312 310 310 308 307 307 307 307 307 307 306 306 305 305 304 303 303 302 303 301 300 300 300 299 299 299 298 298 298 299 299 300 300 298 297 296 295 294 292 291 288
326 328 329 330 331 331 332 333 333 333 333 333 333 334 334 335 334 334 333 333 334 334 334 334 334 333 333 332 330 329 327 326 326 325 324 323 322 321 320 319 318 319 318 315 311 310 309 311 306 306 306 306 306 305 305 305 304 303 304 303 302 302 302 302 302 301 300 300 301 300 300 298 298 298 299 299 298 298 296 297 295 295 295 292 287
323 326 328 329 330 331 332 332 333 333 334 334 334 334 334 334 335 334 334 334 334 334 334 334 334 334 333 331 329 328 327 326 326 325 324 323 322 321 320 319 319 319 317 313 311 309 308 307 307 306 306 305 305 305 305 304 304 303 303 302 302 301 301 300 300 301 300 301 300 300 298 298 298 298 298 298 298 298 297 297 296 296 296 294 292
323 325 327 329 330 331 331 332 332 332 333 334 334 334 333 333 333 334 334 335 335 334 333 333 334 334 333 331 329 328 327 326 326 325 324 323 322 321 320 319 319 318 314 312 310 309 308 306 306 306 305 305 304 304 304 303 303 303 303 301 301 300 300 300 300 301 302 301 300 299 299 299 298 298 298 298 298 299 298 298 298 297 295 295 293
323 325 327 328 329 330 331 332 332 333 333 333 333 333 333 333 332 334 333 334 334 334 334 334 334 334 333 330 329 328 327 327 326 325 324 323 322 322 320 320 318 315 312 311 310 308 307 307 306 306 305 304 304 304 303 303 303 302 301 301 300 301 300 300 302 301 301 300 300 298 298 298 298 298 297 298 298 297 297 298 297 296 296 295 293
323 325 327 328 329 330 330 331 332 332 332 332 333 333 332 331 332 334 334 334 334 334 334 334 334 334 332 331 329 329 328 327 326 325 323 323 322 321 320 318 316 313 312 311 309 308 308 307 306 305 305 304 304 304 303 303 302 301 301 302 301 300 300 299 300 300 300 300 298 298 298 297 298 297 297 298 298 297 297 296 295 296 294 295 294
324 325 327 328 329 329 330 330 331 331 331 332 332 332 332 331 332 333 334 334 335 335 335 334 333 333 332 331 330 328 328 327 325 324 323 322 321 320 319 316 314 313 312 310 309 308 307 306 305 305 304 304 304 303 303 303 302 301 301 301 301 300 300 299 300 300 299 298 298 299 299 299 299 297 296 296 297 297 297 295 294 294 294 293 294
324 326 327 328 328 329 329 329 330 330 331 331 331 332 332 331 332 333 333 334 334 335 335 334 333 333 332 331 329 328 327 326 325 324 323 322 320 319 318 315 314 313 311 310 309 308 307 306 305 304 304 304 303 303 303 302 302 301 301 300 300 300 300 300 300 299 299 299 299 298 298 299 298 296 295 294 295 295 295 294 293 293 293 293 293
323 325 326 327 327 327 328 329 330 330 331 331 331 331 331 331 331 332 334 335 335 335 334 334 333 332 332 330 329 328 326 326 325 324 322 321 320 318 317 315 314 312 311 310 309 308 307 305 305 304 304 303 303 303 303 301 301 301 301 300 300 300 300 300 300 300 304 300 300 299 299 297 296 295 293 293 293 293 293 293 292 292 292 292 293
323 324 325 325 327 328 328 329 329 330 330 331 331 331 331 330 331 332 333 334 334 334 334 333 332 332 331 330 329 327 326 325 325 324 322 321 320 318 316 314 314 312 311 310 309 308 307 305 305 304 304 304 303 303 302 301 301 302 301 301 301 300 300 300 301 302 301 301 300 299 298 296 294 293 292 291 292 292 292 291 290 290 290 290 289
323 324 325 326 326 327 328 328 329 330 330 330 330 331 331 330 330 331 333 333 334 334 333 333 332 332 331 330 329 327 326 325 324 323 321 320 319 318 316 314 313 312 311 309 309 308 307 306 305 304 304 304 303 303 302 301 302 302 301 301 300 300 300 301 301 301 300 300 298 297 296 295 293 292 291 291 291 291 293 291 292 291 290 289 289
324 324 324 325 325 326 327 328 328 329 330 330 330 331 331 330 330 331 332 333 334 333 333 332 332 331 330 330 329 328 327 325 324 322 321 320 319 318 316 314 313 311 311 310 308 308 307 306 305 304 304 304 303 302 301 301 301 301 301 301 301 300 301 300 300 299 299 298 297 295 294 294 293 292 291 290 291 291 290 290 290 290 290 289 288
323 323 324 325 325 326 327 327 328 328 328 329 329 330 330 331 331 331 332 332 333 333 332 332 332 331 330 330 329 327 326 325 322 321 320 319 318 317 316 314 313 312 311 310 309 308 306 305 304 304 304 304 303 302 302 302 301 301 301 301 301 301 300 299 298 298 297 296 295 295 294 292 297 301 302 299 298 297 292 290 291 290 291 289 288
322 323 324 325 325 326 327 327 327 328 328 328 329 329 329 330 331 332 332 332 333 332 332 331 331 331 330 330 328 326 325 323 321 320 319 319 318 317 316 314 313 312 311 310 308 307 306 305 304 303 303 303 303 303 306 305 304 303 301 301 300 300 299 299 299 297 295 295 294 294 298 306 304 304 303 301 300 301 303 294 290 290 291 289 290
323 323 324 325 325 326 326 326 327 327 328 328 329 329 329 330 330 331 332 333 333 332 332 331 331 331 330 329 327 325 323 321 321 320 319 318 317 316 315 314 313 312 311 309 307 306 305 304 304 303 302 303 303 304 302 298 299 302 302 300 299 299 299 299 298 297 294 294 293 294 297 304 304 304 299 297 296 296 296 297 297 300 300 292 290
322 323 324 324 324 324 325 326 327 328 328 328 328 329 329 329 330 330 331 332 332 332 331 331 331 330 329 327 326 323 321 321 320 319 318 317 316 315 314 313 312 311 310 309 307 306 304 303 303 303 302 302 302 304 297 297 298 299 302 301 299 299 299 298 298 297 295 294 293 294 295 298 295 295 293 293 296 296 294 294 294 294 293 295 297
321 321 322 323 323 324 325 326 327 328 328 329 329 329 328 329 330 331 331 331 331 331 331 330 330 329 328 327 325 322 321 320 319 319 318 317 315 314 313 312 311 311 310 308 307 305 303 303 303 302 302 302 302 298 296 297 297 297 298 301 300 300 299 298 298 298 296 294 294 294 295 296 297 304 302 292 293 296 299 296 296 297 297 296 293
320 322 322 323 324 325 325 326 327 328 329 330 330 330 330 330 330 330 330 330 330 330 330 329 328 327 327 325 323 322 320 319 319 318 317 316 314 313 313 312 311 310 309 308 306 304 303 303 303 302 302 302 301 298 296 297 296 296 296 299 300 300 299 299 298 298 297 295 294 293 294 295 294 298 295 293 292 290 289 289 289 290 291 295 296
319 320 322 322 324 325 325 325 326 327 328 329 329 329 329 329 330 329 329 329 330 330 329 328 327 326 325 323 323 322 320 319 318 317 316 315 314 313 312 311 310 309 308 306 305 303 303 303 303 302 301 300 301 297 296 295 295 296 295 298 300 301 299 298 299 298 298 296 294 295 294 295 295 295 295 293 290 289 289 290 289 291 291 292 292
322 321 324 324 324 325 325 326 327 327 328 329 329 329 329 328 330 329 329 329 329 329 328 327 325 324 323 322 322 321 320 318 316 315 315 314 313 312 311 310 309 308 307 306 305 305 303 303 303 302 301 300 299 294 294 295 295 295 296 302 299 299 299 298 298 299 298 298 296 295 295 295 296 295 297 294 294 291 289 289 290 290 289 291 292
323 324 326 328 328 327 327 327 327 328 328 328 329 329 329 328 328 328 328 328 328 327 326 325 324 323 322 322 321 320 319 317 316 315 314 313 312 310 310 309 308 307 306 305 305 304 304 304 303 302 301 300 298 294 294 295 295 294 298 300 300 300 299 299 299 299 299 299 298 297 296 296 295 293 295 292 292 294 289 289 290 288 289 289 291
317 321 325 328 328 328 328 328 327 328 329 329 329 329 328 327 327 327 327 327 327 326 325 324 323 322 322 322 321 320 318 316 314 315 314 313 312 310 309 308 307 306 305 305 305 304 304 304 303 302 302 300 298 296 294 294 294 295 299 300 300 299 299 299 299 299 299 300 300 305 302 295 293 293 293 291 291 293 288 288 288 288 288 288 289
316 315 320 325 327 328 327 327 328 327 328 329 328 328 327 326 326 327 327 326 327 326 325 324 322 322 322 322 321 320 318 316 314 315 314 312 310 309 308 308 308 307 306 305 304 304 303 303 303 303 306 302 299 297 293 293 294 295 299 300 300 300 299 299 299 299 298 299 300 307 304 298 295 293 290 290 291 293 288 288 288 288 288 286 287
315 315 319 324 326 326 325 326 326 327 328 328 328 328 326 326 326 327 326 326 326 326 326 324 323 322 321 321 320 319 317 315 313 313 314 312 309 308 307 307 306 306 304 304 303 303 303 303 303 302 304 302 299 297 295 293 294 295 297 302 301 300 299 299 298 299 298 295 295 297 299 294 292 291 289 290 291 292 289 288 287 286 286 287 286
313 314 313 322 325 326 325 326 327 328 328 328 328 327 325 325 326 326 325 326 327 326 324 323 322 321 320 319 319 317 313 313 313 313 313 310 308 307 307 306 305 305 304 303 302 303 303 302 303 303 303 301 301 298 296 292 293 294 296 298 299 300 298 298 297 298 297 296 294 294 294 294 291 290 290 290 290 291 292 290 289 287 288 289 289
311 313 316 321 324 325 325 326 327 328 328 328 328 326 325 325 325 325 325 327 326 324 323 322 321 320 320 319 317 315 313 314 314 312 309 307 307 307 306 306 305 304 303 302 301 301 302 302 302 302 302 300 302 302 298 293 293 294 295 296 298 299 298 297 296 296 296 294 294 293 293 293 290 290 290 290 290 290 291 292 289 290 290 290 289
312 313 316 322 323 324 325 325 326 327 328 328 327 324 324 323 324 325 326 325 324 323 322 321 320 319 318 317 315 313 312 312 311 309 308 306 306 306 305 305 304 303 302 301 300 301 301 300 300 301 301 300 300 302 298 296 293 293 294 294 295 296 293 298 296 295 294 294 291 293 294 295 290 290 290 290 290 290 291 290 290 289 289 289 290
320 320 318 319 323 324 324 324 325 326 327 327 326 323 322 323 324 326 325 324 323 322 321 319 318 318 317 316 314 312 312 312 310 308 307 305 305 305 305 304 303 302 301 300 299 300 300 299 300 299 300 299 299 300 297 296 295 292 293 293 293 293 293 293 294 293 291 289 288 291 294 292 290 290 290 290 289 290 290 289 289 289 289 290 289
319 319 320 320 320 321 322 323 324 325 326 326 326 323 320 322 324 324 323 322 322 320 319 318 317 317 316 315 313 312 312 312 310 309 306 305 305 304 303 303 302 302 301 300 299 299 299 299 300 300 299 298 298 297 296 295 294 293 292 292 292 291 291 291 292 293 290 290 289 289 290 292 291 290 290 290 289 290 289 289 289 288 291 287 287
319 319 320 322 321 320 321 321 322 324 325 324 325 324 320 323 324 323 323 322 321 319 318 317 317 316 315 314 312 311 312 311 310 309 307 306 305 304 303 302 301 301 300 300 299 299 299 299 299 299 299 298 297 296 295 295 295 295 293 291 291 291 292 292 293 293 291 289 289 289 289 290 291 290 290 288 288 289 289 289 289 290 288 287 287
316 316 317 320 321 319 317 316 316 319 323 324 324 324 323 322 322 324 323 322 320 318 316 316 315 314 314 313 311 311 310 310 309 308 307 306 305 304 303 301 301 300 300 300 299 298 298 298 299 299 298 297 296 294 294 293 293 292 291 292 292 291 292 291 292 292 291 289 288 289 288 290 291 290 290 290 290 290 289 289 288 289 290 289 288
315 316 318 319 319 319 318 317 316 318 320 321 322 322 323 323 324 324 323 321 319 317 316 316 315 314 313 311 310 301 306 308 307 307 306 305 304 304 303 301 301 301 300 299 299 298 298 299 299 298 297 295 295 294 294 293 292 292 292 291 291 292 290 289 289 289 289 290 289 289 288 288 288 288 288 287 287 287 288 287 288 288 289 290 292
313 314 317 318 318 318 318 317 316 319 320 320 320 321 323 323 324 323 322 319 316 312 314 314 313 313 311 309 308 307 308 307 307 306 306 306 304 304 303 303 303 303 303 301 300 300 300 301 300 298 297 296 295 295 296 293 294 292 292 292 290 290 290 289 291 289 290 290 288 287 286 286 286 286 287 287 286 286 288 288 289 289 289 288 288
313 314 316 317 316 317 317 317 318 320 321 320 320 320 322 323 323 321 319 316 313 313 313 311 311 311 309 307 307 307 307 306 306 305 304 304 299 300 301 303 302 299 297 297 297 301 302 301 300 300 300 298 297 299 295 292 292 291 291 292 291 291 290 290 289 289 290 287 288 286 287 285 286 285 284 285 286 287 286 287 289 289 288 289 289
312 312 313 313 315 315 316 316 318 320 320 320 320 321 322 321 321 318 316 314 313 311 311 310 309 308 305 307 306 306 306 306 306 305 304 302 301 300 297 297 298 296 295 294 294 296 296 296 299 299 298 296 296 293 292 292 292 291 291 291 291 290 290 289 289 288 286 286 286 287 286 284 284 285 285 285 285 286 286 286 287 287 288 290 289
Wind_Speed
14 14 13 13 13 15 14 13 12 11 11 13 13 12 13 13 12 13 11 11 10 10 9 9 8 7 6 8 7 6 6 6 6 6 6 6 6 6 6 5 5 5 4 5 5 5 4 3 2 3 3 3 4 3 4 4 3 4 3 4 7 7 3 3 3 7 8 5 5 5 5 4 4 4 4 3 3 3 2 3 2 3 2 3 4
11 7 9 7 8 9 11 12 13 14 12 14 16 14 12 12 14 13 11 11 11 11 9 9 7 7 7 8 4 5 6 7 6 6 6 6 6 6 5 5 6 5 4 4 5 5 4 3 3 4 3 3 3 2 3 3 3 3 3 4 2 7 4 4 6 5 3 4 5 2 4 4 3 4 4 3 3 3 3 3 2 3 2 3 3
10 13 14 14 14 13 12 12 13 16 16 17 15 13 12 12 12 13 12 11 10 11 10 9 5 6 7 5 6 3 2 4 6 5 6 7 6 6 6 6 6 5 4 4 5 4 4 4 4 4 4 4 4 2 2 3 3 3 4 6 5 2 3 3 4 1 5 3 3 6 0 1 2 2 2 2 2 2 2 3 2 2 1 1 3
13 14 14 13 14 14 12 12 14 12 13 12 13 15 12 12 12 13 13 12 11 10 10 9 8 6 5 6 4 4 5 5 5 5 5 5 6 5 5 6 6 6 5 4 3 4 4 4 4 3 3 3 4 3 3 2 2 2 3 4 7 6 3 3 2 1 5 8 2 1 3 4 0 4 2 1 1 0 2 2 1 1 0 2 3
18 16 16 16 15 14 17 16 13 13 15 16 15 15 12 15 14 14 13 12 11 11 11 9 8 7 5 4 4 6 5 5 6 5 6 6 6 5 6 5 6 6 5 4 4 5 4 4 4 4 4 3 3 4 4 4 3 3 4 4 5 7 5 2 0 2 7 3 8 5 3 0 4 3 3 2 0 0 0 0 0 0 0 1 3
24 22 21 20 20 18 14 13 15 15 16 16 16 16 14 13 14 13 11 11 11 12 12 11 10 10 9 9 9 7 8 9 10 10 7 7 7 4 5 6 6 5 5 5 5 5 4 4 4 4 4 4 5 4 4 3 3 3 3 6 5 4 7 4 2 0 5 3 3 5 7 5 5 2 4 3 0 1 2 1 1 1 0 0 0
12 18 20 20 18 16 16 16 18 18 16 14 12 13 13 13 14 14 12 11 11 12 12 11 10 10 11 11 9 9 9 5 5 6 7 5 5 6 6 5 6 7 5 5 4 4 4 3 3 3 3 3 3 5 4 4 3 3 3 4 5 5 5 5 6 4 2 1 0 1 1 1 7 7 5 3 1 2 1 2 3 2 1 1 1
16 15 18 21 21 20 19 21 20 20 17 14 13 12 15 15 15 14 12 12 11 12 13 12 11 10 10 10 8 9 9 8 7 6 5 6 6 6 6 5 6 6 7 5 5 5 4 4 4 3 4 3 3 5 5 3 5 3 3 4 4 5 7 7 5 5 7 3 0 1 2 4 3 2 5 7 5 4 3 1 2 3 3 3 1
21 19 19 18 19 20 21 21 20 16 13 15 15 15 14 13 14 13 13 12 12 14 12 11 11 10 10 9 8 6 8 7 6 6 6 6 6 5 5 5 5 5 6 6 5 5 4 5 4 4 5 3 4 5 3 4 5 5 4 4 5 3 3 4 6 6 4 6 3 2 4 3 3 2 3 3 3 3 1 3 3 1 1 4 4
20 23 23 23 23 23 23 21 16 15 15 13 12 11 12 12 14 15 14 12 12 14 13 12 11 11 10 10 11 9 7 7 7 8 7 6 7 5 5 5 6 5 4 5 5 4 5 4 5 6 6 5 4 5 4 4 4 4 4 5 4 5 3 4 5 4 3 2 2 6 4 2 2 2 2 3 3 2 5 5 4 5 4 5 2
18 20 23 25 24 24 18 15 17 14 11 13 13 13 13 13 14 15 14 12 13 14 14 14 11 11 11 12 12 12 11 11 9 8 7 6 7 6 6 5 5 5 5 3 4 4 5 5 6 5 5 5 5 5 4 5 4 5 4 5 5 6 6 6 5 3 4 4 3 4 6 7 6 4 4 2 3 2 3 1 1 4 6 2 1
18 18 18 18 15 9 9 12 13 14 13 13 13 13 13 13 14 15 13 13 13 13 14 13 11 11 11 12 13 13 13 11 12 12 10 10 8 8 5 5 5 5 5 5 4 4 5 5 5 5 5 5 5 4 4 5 5 5 5 5 5 4 5 6 6 6 5 5 4 4 6 5 5 5 4 4 5 4 6 4 4 2 1 3 3
19 18 17 16 16 16 15 15 13 13 15 17 16 15 14 13 15 16 15 14 14 14 15 14 12 12 12 12 12 12 13 12 12 11 10 10 9 8 7 7 6 6 5 6 4 5 6 6 6 6 5 4 5 5 4 5 5 5 5 5 5 5 5 6 6 5 5 7 6 3 5 5 5 2 4 5 4 5 7 5 1 1 2 1 1
18 17 17 17 17 16 18 18 18 17 17 17 16 15 14 14 15 16 16 15 14 14 15 14 14 12 12 12 11 12 12 12 10 11 10 9 9 9 8 8 8 8 7 7 6 6 5 5 5 5 5 5 5 5 5 4 5 6 5 6 5 4 5 6 7 5 5 5 5 6 5 6 4 3 3 5 5 5 4 6 3 3 3 1 1
18 19 19 19 19 19 18 17 17 17 18 17 15 16 14 14 15 16 15 15 15 15 13 14 13 13 12 11 11 10 11 10 9 9 10 10 8 8 7 6 7 7 8 6 6 7 6 6 6 6 5 5 5 6 5 5 4 5 5 5 5 4 6 7 6 7 7 6 5 6 6 5 4 3 5 4 4 4 5 5 6 7 2 4 3
18 19 18 18 19 19 17 17 17 17 19 17 17 16 16 16 16 17 17 16 16 15 14 14 13 11 11 12 12 11 9 9 8 8 8 9 9 9 8 7 7 7 6 7 6 7 7 7 6 6 6 6 6 6 6 6 5 6 5 5 6 3 7 7 6 6 7 6 6 4 6 4 4 5 5 4 4 5 5 3 5 5 8 2 2
18 17 16 18 17 17 17 17 16 16 16 18 19 19 19 17 15 16 15 14 16 16 15 14 13 13 12 11 11 11 11 11 10 10 10 8 8 8 8 7 7 7 7 6 7 6 7 7 7 6 6 6 6 6 6 6 5 6 6 5 6 4 6 6 5 7 5 6 5 5 6 6 4 4 4 5 4 4 4 4 3 5 6 7 2
19 19 20 21 20 21 18 17 19 21 22 20 19 17 16 15 17 17 16 17 16 16 15 14 14 14 12 12 12 12 11 11 10 11 9 9 7 7 7 8 8 7 8 7 7 7 7 7 7 6 6 6 7 6 6 6 6 5 5 5 4 5 6 4 4 6 6 5 5 5 4 6 3 4 5 4 4 4 5 6 6 5 5 7 4
17 18 17 18 18 20 20 21 21 19 19 19 18 16 14 13 13 15 17 16 16 14 13 12 12 10 10 11 12 11 11 10 9 10 10 10 10 9 9 8 7 7 8 8 8 8 7 6 7 7 6 7 6 6 6 6 5 6 5 6 4 5 6 6 4 5 4 5 5 5 4 4 4 4 4 4 3 4 4 4 5 5 6 7 6
17 18 19 20 20 21 21 20 18 17 16 13 14 13 15 14 13 13 12 11 12 13 13 13 13 11 10 10 11 12 11 11 11 11 10 11 10 10 9 9 9 7 8 9 9 9 8 7 6 7 7 6 6 5 6 6 6 6 6 6 5 5 6 6 5 4 4 5 5 5 4 4 3 5 5 5 4 4 4 5 5 6 4 4 5
17 19 19 21 21 20 18 16 16 14 13 13 14 17 17 14 14 14 15 15 15 14 14 12 12 12 13 13 12 12 13 12 12 12 11 11 10 10 9 9 8 8 9 9 9 9 8 8 8 7 7 7 7 6 6 6 6 6 5 5 5 5 6 5 5 5 4 4 4 5 4 4 4 6 4 5 5 4 5 5 5 6 7 4 5
18 19 20 21 21 18 14 12 11 12 13 15 14 13 13 14 14 14 13 14 15 14 14 13 12 12 13 13 13 12 12 12 13 12 11 11 10 10 10 9 10 9 10 10 10 8 8 8 8 8 7 7 7 7 6 6 7 7 5 5 6 6 6 5 5 6 4 4 5 6 5 4 5 6 5 5 4 5 5 6 6 6 6 6 3
18 20 20 20 19 18 17 18 18 19 18 17 15 15 16 16 14 13 15 16 15 14 13 12 12 12 13 13 13 12 13 14 14 12 12 11 10 10 10 11 10 10 9 10 10 9 9 8 8 8 8 7 7 7 6 7 7 7 7 5 6 6 6 6 6 6 5 5 5 5 5 4 4 6 5 4 4 5 5 6 4 4 6 4 4
19 20 20 18 17 16 15 15 15 14 15 17 16 15 14 15 15 15 16 16 14 13 13 12 12 13 13 13 14 13 14 14 14 12 13 11 11 10 10 11 11 10 10 8 9 10 9 9 9 8 8 8 7 7 7 6 7 7 7 7 6 5 5 6 7 7 6 6 5 5 5 6 6 6 5 5 4 5 6 5 5 4 5 4 4
18 19 17 15 15 17 18 18 18 18 16 16 16 15 15 15 15 15 15 15 14 13 13 13 13 14 14 14 14 14 14 14 14 12 13 13 12 11 10 11 11 10 10 9 8 8 9 9 9 9 8 8 8 8 7 6 6 6 7 7 6 6 6 7 7 6 6 6 5 6 5 6 6 6 4 5 4 5 4 6 4 3 4 3 3
19 18 16 18 19 18 18 18 17 18 18 17 16 15 15 15 16 14 14 14 14 13 13 12 12 14 14 15 14 14 15 15 14 13 14 13 13 12 11 10 11 11 10 10 11 9 9 9 9 9 8 8 7 7 7 7 7 7 7 7 7 6 6 7 6 6 6 5 5 5 5 6 6 6 4 4 5 5 4 4 4 4 3 3 4
18 19 18 17 17 19 19 19 18 18 16 16 16 15 15 15 15 14 14 14 14 13 13 13 13 14 13 14 14 14 14 14 14 13 12 12 13 13 12 11 10 12 11 10 10 10 8 9 9 8 8 8 7 7 7 7 7 7 8 7 6 6 6 6 5 6 5 5 6 6 6 6 6 6 6 5 5 4 5 4 4 4 2 4 3
15 15 17 20 19 18 18 18 17 15 15 14 15 15 16 16 16 14 13 13 12 13 13 13 13 13 14 14 13 13 14 14 12 13 13 13 12 12 12 11 10 11 11 12 12 11 9 8 9 9 8 7 7 7 7 6 6 8 8 7 7 7 7 6 5 4 5 6 7 6 6 5 6 5 5 5 5 5 4 4 2 3 3 3 3
17 18 19 19 19 18 18 17 16 16 16 16 15 14 12 12 13 13 13 14 14 14 13 13 13 14 14 14 12 12 12 13 13 13 13 13 13 12 12 11 11 11 10 11 11 10 10 9 8 9 8 7 8 8 7 7 8 7 7 7 7 7 7 7 5 5 5 6 6 6 5 5 5 7 9 6 6 6 5 5 1 2 2 2 1
17 17 18 19 21 20 20 18 16 17 17 16 15 15 15 15 14 13 13 12 13 14 14 14 14 14 13 13 13 12 12 13 14 14 14 13 12 12 12 11 11 11 11 10 9 9 10 10 10 9 8 7 7 6 8 12 9 7 7 6 6 6 7 7 7 6 5 5 6 5 5 10 11 11 9 8 8 6 5 4 3 2 1 1 0
18 17 17 17 17 17 17 17 17 18 18 17 16 15 14 14 13 14 14 13 14 14 15 15 15 13 13 14 13 13 13 14 14 13 13 13 13 11 11 11 11 11 11 10 10 10 9 9 10 9 8 7 7 7 12 13 13 12 7 6 7 6 6 7 7 7 7 5 4 4 5 7 8 8 6 8 7 6 5 3 2 3 3 2 1
11 12 13 13 13 14 15 17 18 18 18 16 14 14 14 14 14 13 12 12 13 14 14 14 14 14 14 15 14 14 13 14 14 14 14 13 13 12 12 11 11 11 10 9 10 10 9 8 8 9 9 8 7 10 15 14 13 13 10 7 6 6 6 6 7 7 7 6 5 5 4 4 5 5 4 4 4 3 3 2 3 3 4 5 5
9 6 6 8 12 15 18 18 17 16 16 16 16 15 16 15 15 13 12 13 14 14 14 13 13 14 15 15 14 16 16 15 14 14 13 13 13 12 12 12 12 11 10 11 11 10 9 8 9 10 9 8 6 11 15 15 14 13 13 9 6 6 7 6 7 7 7 7 6 6 4 4 4 9 4 3 3 1 2 3 2 2 3 2 4
2 6 5 6 9 11 13 15 17 18 18 16 16 17 16 14 14 13 14 13 14 13 14 14 13 14 15 15 15 16 16 16 16 15 14 13 13 13 12 11 10 10 11 10 9 11 9 9 10 10 9 8 8 12 16 15 13 13 12 10 6 7 6 7 6 7 7 7 7 7 6 5 4 3 4 4 3 4 3 2 1 2 3 4 6
7 4 7 8 10 11 11 11 11 12 12 12 12 10 10 11 12 13 13 14 14 14 13 13 14 13 12 14 16 17 17 16 16 15 14 14 13 12 12 11 11 12 12 11 11 11 10 9 9 9 9 8 8 14 14 14 13 13 13 9 6 6 6 6 6 6 7 8 7 7 7 7 5 4 4 6 5 4 3 2 2 2 3 3 3
14 14 13 13 13 13 14 15 13 11 10 12 14 13 14 14 13 14 13 14 13 14 14 13 14 14 15 14 14 15 16 15 13 14 16 15 14 14 13 10 9 8 7 7 5 8 10 10 10 10 10 9 8 12 13 15 15 13 13 6 6 6 5 5 5 5 5 6 7 7 7 5 5 5 7 10 7 5 3 3 2 2 3 3 2
17 19 21 21 19 16 15 14 13 13 14 14 12 13 14 13 14 13 14 13 14 14 14 15 15 15 15 15 16 16 15 15 17 18 16 14 13 12 10 10 11 10 10 10 11 10 10 11 11 10 11 10 8 11 14 15 14 14 10 6 6 7 5 4 5 5 6 6 6 7 6 6 5 5 8 11 9 7 4 3 2 1 2 2 3
12 11 11 14 16 17 18 18 17 16 17 14 14 15 15 15 14 14 14 14 14 15 14 15 14 15 16 16 16 16 16 15 15 17 16 13 13 11 12 11 13 12 12 11 10 9 9 10 12 11 11 11 9 12 15 15 14 14 10 7 6 7 6 6 5 6 6 6 8 13 9 7 7 6 9 10 9 6 4 3 2 1 1 3 4
12 10 12 12 14 17 17 15 16 17 15 15 16 17 16 16 15 15 15 15 15 14 14 15 14 13 15 16 16 15 15 15 15 13 14 15 13 13 11 10 10 10 10 8 8 9 9 8 10 11 10 12 10 11 12 13 15 15 10 6 7 6 7 6 6 5 4 6 6 9 12 9 8 9 12 10 10 6 5 4 3 2 0 2 4
14 12 13 16 14 11 12 15 16 17 16 16 15 15 16 16 15 15 15 15 16 15 13 12 13 13 11 12 14 15 14 12 13 11 9 12 13 12 12 11 9 8 9 8 9 9 11 9 8 9 10 9 9 9 11 14 14 14 13 8 6 8 7 7 5 6 5 3 3 4 8 12 13 13 12 11 9 9 6 4 4 3 2 3 2
12 12 10 10 11 15 17 18 17 16 15 16 16 16 15 15 15 15 16 16 14 11 12 12 12 13 14 11 9 8 9 10 12 13 13 10 10 12 11 11 11 8 8 8 9 8 9 8 8 8 8 7 8 10 10 14 13 13 14 11 6 7 6 6 6 5 6 6 3 4 5 8 13 14 13 11 10 10 8 5 5 4 6 3 3
7 12 10 10 12 13 14 14 13 17 17 16 16 16 16 15 15 16 15 11 11 12 12 12 13 12 12 12 11 9 12 13 11 9 9 8 5 9 12 11 9 9 10 10 8 8 8 8 7 7 8 8 8 12 10 12 13 13 13 14 8 6 7 7 6 6 5 5 5 5 5 8 12 14 13 12 11 10 9 4 6 9 7 5 1
1 3 7 13 11 12 13 15 13 15 15 15 17 17 15 14 16 15 11 12 12 12 12 12 12 12 11 10 9 10 11 11 11 10 10 10 9 9 9 10 11 10 10 10 9 8 8 8 7 5 6 7 7 8 12 11 13 13 14 13 12 8 7 7 7 6 6 6 4 4 5 10 13 13 13 12 11 11 7 6 8 7 6 3 1
7 6 4 1 8 12 11 10 12 14 14 14 17 16 15 15 15 11 11 12 12 12 13 13 12 11 11 10 9 10 11 11 10 10 11 11 10 10 9 9 10 10 9 9 7 8 8 9 9 7 6 6 5 6 9 13 13 15 13 13 11 11 11 5 6 6 5 5 4 4 6 9 11 13 13 12 12 10 8 10 8 7 4 3 1
8 7 8 6 4 6 9 10 10 13 12 14 14 17 17 17 13 13 13 14 13 13 13 13 13 12 11 9 10 10 12 11 11 12 12 10 10 10 9 8 8 8 8 9 8 8 8 8 7 9 7 5 5 5 5 9 13 15 14 12 11 12 10 10 6 4 4 4 4 5 6 10 12 12 12 11 8 9 11 8 8 6 4 2 3
7 8 9 10 9 6 5 10 11 12 13 14 15 17 20 17 14 14 14 14 13 13 12 13 11 12 12 12 11 10 9 10 11 10 11 11 13 12 10 9 9 8 8 9 9 8 8 8 9 8 7 6 5 5 6 7 8 9 9 11 12 12 11 10 8 8 9 9 7 2 5 9 11 10 5 4 5 7 8 7 6 4 3 4 4
10 8 10 12 12 11 8 8 6 2 5 10 14 12 12 12 14 13 14 15 14 12 11 11 11 10 9 11 14 11 9 9 9 8 7 7 8 8 8 9 8 9 9 8 8 8 8 9 9 8 7 6 6 6 6 6 6 6 6 7 8 7 7 7 5 5 6 4 4 2 1 4 7 12 11 8 7 4 2 3 3 4 5 6 5
6 7 10 11 11 10 9 11 7 4 8 7 3 7 8 8 9 12 13 14 14 14 13 12 12 11 9 10 10 13 13 10 9 10 9 8 7 8 10 11 12 11 10 9 10 10 11 11 10 8 7 7 7 7 7 8 8 8 7 7 7 8 7 7 6 5 5 3 3 4 5 3 4 5 3 2 2 2 3 3 5 4 6 5 5
6 5 8 12 11 11 13 12 10 7 3 2 3 7 9 11 11 11 13 13 12 12 11 12 11 10 10 9 9 10 10 10 10 9 8 9 12 12 12 10 8 8 11 13 12 10 10 9 8 9 10 9 8 9 12 10 11 12 11 9 8 8 7 7 7 8 3 1 3 3 2 2 4 5 5 4 4 4 6 6 5 5 6 5 4
5 3 6 11 10 13 14 14 11 11 12 7 5 3 5 8 9 10 11 13 13 12 11 10 9 10 9 9 8 8 8 8 9 9 9 6 3 5 5 7 8 10 12 9 9 12 13 11 10 9 11 13 15 14 11 14 13 14 14 15 14 13 11 8 8 11 7 4 3 4 4 4 4 4 5 5 7 6 6 6 6 4 5 5 5
2 3 3 3 5 5 7 8 6 7 10 11 11 10 9 8 9 10 12 12 12 10 10 9 9 9 10 10 9 9 8 8 8 8 8 8 6 3 5 7 6 8 9 10 12 9 10 12 11 9 9 10 3 9 15 16 14 15 16 16 14 13 13 12 12 8 4 6 6 7 6 5 6 6 6 7 7 6 7 7 7 6 5 6 5
Wind_Direction
194 191 187 184 186 182 165 155 160 163 166 170 172 172 170 169 162 165 165 162 159 161 166 164 158 157 164 178 183 178 161 157 156 154 155 160 158 155 152 150 149 153 155 148 156 160 156 151 142 160 160 141 123 144 138 123 124 124 105 95 116 116 101 123 125 115 111 68 45 48 39 34 51 58 64 63 68 60 69 102 118 103 85 123 149
178 156 171 178 186 186 162 154 156 162 178 174 178 176 171 167 166 163 161 166 166 165 165 167 166 168 167 180 169 158 156 155 155 162 158 158 158 157 152 149 154 157 155 153 156 151 146 138 143 151 145 124 128 156 138 106 92 90 110 71 75 137 139 169 176 116 42 140 128 67 11 359 25 45 51 26 42 51 85 95 82 112 115 132 149
175 178 176 179 181 181 172 165 170 173 175 180 177 166 169 168 167 164 167 167 168 165 164 167 155 157 160 174 165 141 127 148 152 156 150 155 162 157 153 153 151 157 156 154 148 153 152 141 154 146 133 125 108 82 82 100 130 133 129 127 114 95 117 178 199 84 135 99 102 88 56 57 331 11 7 29 15 46 66 78 93 107 123 120 135
182 174 177 181 182 182 175 174 176 171 173 178 176 174 170 170 168 167 169 168 165 170 166 158 151 151 156 157 155 138 154 139 130 135 141 143 157 159 159 152 154 158 161 157 143 139 145 141 133 124 124 119 129 129 123 152 120 127 131 129 137 132 141 197 257 148 130 128 84 133 180 115 338 272 216 278 6 346 78 105 106 143 333 69 111
180 179 177 177 181 185 186 183 171 176 182 182 179 177 177 173 168 166 168 169 165 164 161 152 141 139 137 108 107 90 87 124 128 146 163 161 149 159 169 162 157 156 157 146 136 139 137 129 127 136 126 131 114 123 157 183 176 165 151 140 157 150 163 156 322 161 165 179 137 105 59 24 217 227 122 276 1 122 300 220 183 34 76 82 131
177 176 177 180 185 188 185 175 181 187 188 187 181 179 171 166 162 166 165 165 165 163 160 158 158 156 156 156 160 158 159 164 170 165 167 167 171 163 154 164 156 149 143 140 139 133 129 132 133 135 132 129 125 121 126 102 106 99 148 154 155 167 151 143 128 225 193 185 177 158 163 174 179 197 114 226 337 234 280 312 310 294 299 356 95
192 178 176 179 185 181 182 184 190 192 193 181 175 178 170 165 166 166 166 166 164 163 162 161 162 166 171 172 171 173 166 173 149 155 158 157 147 159 162 153 150 143 141 141 137 129 125 132 134 123 123 130 116 110 103 115 116 113 118 117 155 151 140 155 166 167 83 314 167 110 131 113 147 136 198 94 184 305 340 282 291 299 292 318 314
180 188 186 183 180 181 185 193 193 194 184 171 175 174 172 171 168 167 165 165 167 164 166 168 169 169 170 171 171 171 170 164 161 155 148 147 150 159 154 149 147 141 140 142 141 139 132 137 138 122 106 112 116 118 125 122 102 80 89 113 122 154 164 158 176 177 162 210 42 70 67 88 117 77 146 161 152 164 257 308 290 284 323 290 270
178 179 185 187 187 189 192 195 197 185 168 175 178 179 172 169 166 164 166 165 167 167 166 170 170 170 170 166 166 170 159 155 147 145 150 155 148 157 151 143 137 136 140 143 144 141 138 144 139 120 114 112 115 115 112 116 118 120 106 98 116 102 132 150 149 185 169 179 116 51 76 72 65 50 101 93 134 119 233 187 235 335 343 293 274
184 180 182 189 191 194 197 193 181 181 181 173 173 168 170 170 169 166 167 168 167 168 167 170 170 167 169 170 163 161 156 149 153 156 158 160 156 166 155 139 139 133 137 138 134 123 118 126 130 130 129 128 120 124 118 106 104 99 109 115 117 105 88 119 135 142 147 121 140 149 127 96 60 51 53 81 60 95 163 198 197 183 217 262 254
187 188 187 189 193 196 188 177 184 180 168 171 173 175 174 174 170 170 170 165 167 168 170 174 169 172 170 169 167 162 163 158 157 160 158 161 164 169 162 149 140 142 132 119 118 120 114 116 123 128 128 126 124 122 124 124 119 110 105 95 100 122 120 107 99 96 106 99 94 132 152 161 168 161 183 176 146 130 80 132 161 192 195 248 263
190 190 193 195 193 187 175 182 179 175 169 174 179 177 177 176 171 170 169 169 169 168 172 176 172 173 168 169 168 167 165 167 167 167 171 169 167 166 160 132 133 133 126 120 117 117 111 111 116 116 117 118 118 119 115 113 112 109 103 107 106 101 111 108 115 115 108 98 88 96 102 108 101 123 167 157 138 170 135 155 170 182 279 247 283
189 190 189 187 183 179 183 184 178 174 179 182 180 178 177 176 174 171 174 170 171 168 174 176 173 173 173 171 169 168 170 170 169 166 169 168 168 164 160 152 146 139 146 135 143 131 123 118 121 121 117 121 123 109 104 108 112 109 113 109 115 123 128 126 122 128 126 118 118 91 103 96 103 110 119 123 85 109 125 125 188 148 173 183 287
190 187 187 187 185 185 185 182 181 182 182 182 179 177 179 179 176 176 176 173 172 172 172 173 175 174 171 171 170 169 171 170 171 168 172 170 171 169 167 161 158 155 149 149 152 135 125 130 127 125 130 130 124 118 114 113 115 115 117 116 116 119 114 116 116 115 103 109 117 108 93 101 99 103 122 114 136 113 103 134 135 19 53 28 323
188 188 188 185 185 184 186 186 183 182 181 180 179 181 179 179 179 178 173 177 176 176 171 171 173 173 171 171 170 169 168 171 170 169 168 170 172 166 160 153 150 154 151 148 144 132 132 127 128 128 133 130 125 120 115 111 111 107 109 114 111 119 118 116 117 120 116 117 106 110 112 94 107 119 113 111 127 131 144 165 138 126 40 27 30
190 189 187 186 184 185 188 186 185 183 182 181 180 179 181 183 181 180 177 175 176 175 176 172 172 171 169 171 170 167 167 167 165 168 172 170 168 166 162 158 152 146 146 140 146 138 137 133 129 131 134 133 131 129 128 124 124 119 117 118 117 123 118 115 124 116 118 118 114 116 100 109 119 111 101 111 104 122 120 121 129 129 134 125 4
188 187 185 185 185 190 188 185 186 183 181 183 184 183 182 178 177 180 178 176 177 177 173 174 172 171 173 168 166 167 168 169 170 169 168 166 161 161 158 157 149 147 144 142 142 142 140 139 135 135 136 137 132 132 131 132 133 128 130 125 122 125 115 124 128 118 123 121 117 120 120 123 118 108 97 105 114 101 100 105 109 137 148 128 125
186 183 184 184 184 187 190 190 187 184 184 185 184 182 180 177 178 178 177 178 180 174 173 174 174 173 169 169 169 169 168 169 166 166 164 158 156 152 148 151 162 154 144 148 142 142 145 143 138 137 138 137 139 136 134 136 130 126 130 124 129 126 115 113 121 123 131 125 122 113 118 115 121 97 100 100 102 114 106 102 96 99 108 122 152
178 181 182 187 190 191 189 188 190 189 184 182 179 174 175 178 180 181 181 181 177 175 171 169 171 172 169 169 167 165 167 167 166 163 162 163 161 159 160 160 154 144 144 147 147 145 146 147 141 139 142 140 138 138 136 136 135 130 131 129 132 126 124 126 137 129 139 127 128 125 123 119 107 89 72 68 73 85 96 98 92 92 93 113 126
174 179 183 186 192 194 190 188 183 179 179 178 173 173 177 180 177 181 178 171 170 173 172 174 174 170 165 161 166 166 166 167 166 164 167 167 166 161 157 159 161 146 148 151 150 151 153 150 148 144 145 143 142 144 142 138 135 137 139 138 147 132 129 136 139 122 124 124 125 124 124 114 95 83 66 59 63 68 94 89 85 79 70 93 110
175 178 182 187 195 194 191 185 179 173 173 170 173 178 181 177 179 180 176 173 173 177 177 177 170 172 163 165 167 167 168 166 166 168 167 168 165 162 162 159 147 155 152 154 154 156 156 153 151 151 150 151 148 149 148 140 138 140 144 143 144 137 134 138 131 127 125 119 121 117 111 112 110 90 83 68 67 70 72 79 83 78 66 49 81
177 180 182 189 192 184 177 169 162 164 172 177 179 176 176 181 183 179 175 176 177 178 179 174 174 170 167 165 167 169 166 166 166 168 167 165 163 163 159 153 158 158 158 156 157 159 157 155 153 153 153 154 153 151 153 144 145 146 148 146 148 144 139 140 138 136 133 130 128 117 115 107 96 100 83 71 76 72 76 72 63 84 76 59 53
182 181 186 190 181 174 171 170 170 173 177 178 177 179 180 182 180 181 181 183 179 178 176 174 171 170 168 164 165 168 167 167 167 167 166 163 163 161 159 158 157 159 162 158 159 159 160 157 155 155 155 157 156 156 158 152 153 154 153 156 155 149 148 146 142 145 143 139 120 115 113 109 101 85 78 77 71 74 79 85 77 77 84 72 59
183 185 189 182 171 166 164 167 170 174 176 179 181 181 178 179 182 182 186 182 177 174 174 173 173 171 166 164 168 167 167 169 169 167 163 163 162 161 160 158 158 158 158 161 159 159 158 159 157 157 158 158 159 160 161 161 158 156 156 158 154 149 148 149 147 148 148 139 134 116 120 119 108 98 90 80 71 78 79 85 80 68 82 74 70
184 185 178 165 162 166 172 174 174 175 176 179 181 181 179 181 181 183 185 180 177 175 173 175 172 168 169 168 169 168 170 171 168 164 162 162 162 160 162 160 158 160 158 156 160 159 158 161 163 163 162 163 165 164 162 160 155 159 159 157 155 153 154 152 149 149 149 144 143 131 135 122 113 107 93 88 87 85 87 87 85 76 84 86 69
179 175 166 168 172 175 176 175 175 175 176 178 180 180 181 181 183 180 178 177 179 175 174 170 170 169 172 171 169 171 172 171 167 162 162 164 163 162 163 164 161 158 158 162 160 166 165 166 164 164 163 166 164 163 165 161 158 163 161 160 160 158 154 148 149 151 149 147 129 125 132 126 119 119 123 113 104 109 101 96 96 86 89 78 75
175 172 173 171 172 176 176 176 177 177 176 176 176 177 179 180 181 179 177 176 176 173 172 171 172 172 171 173 172 173 171 170 166 162 162 166 165 164 163 164 164 159 161 163 166 165 170 164 165 162 166 165 162 163 165 162 160 162 162 161 158 154 152 147 155 152 140 122 122 125 127 127 127 134 138 135 126 117 114 118 121 119 113 89 72
175 171 169 172 175 176 176 177 175 176 176 174 176 178 178 178 178 177 175 174 173 172 171 173 173 175 175 175 174 170 169 168 164 161 163 166 165 164 164 161 159 163 165 166 169 170 167 165 163 166 168 162 159 165 166 159 158 162 163 159 156 156 153 154 152 140 131 128 129 130 132 138 140 146 141 153 136 137 135 121 145 119 113 88 76
174 176 176 172 173 176 176 176 176 173 173 175 176 178 177 177 175 175 174 176 171 170 171 173 176 179 177 172 168 169 168 164 162 162 163 166 168 167 162 161 163 165 167 170 170 163 159 163 163 165 165 162 163 170 167 162 163 165 157 155 158 157 156 148 140 130 130 130 129 135 138 143 151 150 145 149 151 149 136 128 148 130 107 101 69
180 180 179 178 177 175 175 174 172 173 175 177 177 177 176 173 175 176 177 174 167 174 172 175 181 179 171 168 167 167 168 162 163 165 166 166 167 168 163 164 167 167 168 167 163 163 163 163 164 167 164 163 168 168 172 167 164 160 157 154 152 157 154 145 136 130 133 138 142 143 156 156 149 145 149 154 156 154 154 144 165 146 129 102 97
180 180 182 182 178 175 171 170 172 175 178 179 179 176 173 174 175 176 177 174 172 173 175 178 181 176 168 166 167 168 164 165 164 164 164 167 169 167 164 164 165 167 168 166 162 162 166 165 164 164 165 166 166 172 168 162 163 157 149 150 157 160 151 145 140 142 146 150 151 152 156 148 145 153 159 165 166 170 170 179 171 171 176 177 190
179 181 179 174 173 170 172 175 177 179 178 175 173 172 171 177 175 176 174 168 172 173 176 178 177 172 169 170 168 162 165 164 163 166 166 170 168 167 164 163 164 168 169 164 167 168 162 160 158 162 165 166 169 169 162 161 159 155 151 157 159 154 155 152 148 148 152 153 157 158 160 151 162 170 174 173 175 180 194 229 259 245 214 226 220
155 153 177 183 178 179 179 181 179 176 176 179 173 169 176 176 174 171 162 170 174 174 173 175 176 174 172 173 168 165 165 167 168 165 169 169 168 167 165 164 170 171 165 170 173 159 159 159 159 162 165 163 162 166 161 162 161 160 160 155 158 151 156 162 157 155 157 160 160 160 165 171 184 185 167 153 159 164 179 219 254 297 301 258 226
116 162 177 198 195 191 186 180 177 179 180 174 173 177 177 171 166 159 164 171 169 173 172 173 175 176 174 173 169 168 169 169 169 168 166 169 170 170 169 167 165 166 170 173 167 160 156 160 164 160 158 163 160 171 162 163 164 162 160 159 164 158 161 167 166 161 164 166 169 165 165 182 209 191 144 151 138 131 123 75 43 17 3 346 344
146 166 168 196 209 194 179 181 185 182 175 168 173 169 158 160 160 162 166 167 172 170 171 171 172 175 174 175 173 171 171 172 168 163 166 170 167 165 166 167 169 171 171 171 170 162 163 160 158 156 156 163 171 172 165 158 160 168 173 162 161 163 161 169 176 169 170 174 177 174 173 182 182 178 168 158 151 143 118 97 55 16 13 342 326
166 180 181 185 195 191 185 188 183 170 170 173 174 166 163 168 166 165 166 168 169 170 170 172 174 174 174 174 174 175 173 166 161 164 167 169 170 167 166 163 163 165 161 152 155 150 153 158 157 157 156 163 174 172 161 165 171 172 167 159 159 166 174 176 181 189 176 185 179 175 177 178 172 180 178 167 159 136 116 100 66 15 6 348 328
190 185 182 183 183 182 187 182 177 177 174 178 171 167 167 163 167 168 165 167 169 174 174 175 179 176 174 175 176 176 175 170 167 167 172 169 164 162 160 159 160 163 163 170 170 166 161 157 159 162 161 164 167 183 172 170 170 166 157 155 163 161 171 176 197 195 188 186 184 181 173 168 168 178 174 164 155 136 121 115 103 44 358 357 308
220 201 190 182 180 183 183 180 180 181 180 174 167 167 166 167 170 167 167 171 175 179 176 175 181 179 174 175 180 179 176 173 166 171 165 163 164 161 161 164 164 167 174 176 167 157 159 161 160 165 166 160 171 182 179 172 167 165 157 159 160 150 153 162 207 210 188 187 189 183 167 163 167 176 169 162 161 139 129 136 118 77 15 349 302
215 197 189 192 189 186 182 180 176 177 179 172 170 167 166 170 170 171 172 174 182 181 178 178 178 181 178 178 180 181 179 172 163 162 165 166 162 161 160 165 171 171 165 152 155 155 156 161 167 164 163 161 168 176 178 172 170 169 162 152 145 142 147 196 203 195 194 176 184 173 163 166 168 172 168 169 169 153 147 155 150 129 333 299 264
209 210 193 189 191 177 173 175 177 181 172 168 167 168 171 171 174 171 173 180 184 182 176 171 168 174 187 187 183 179 173 165 161 154 160 163 158 154 162 164 158 157 152 159 161 160 159 163 159 162 172 165 160 168 182 183 177 171 165 158 156 147 174 192 191 175 185 209 172 156 170 167 163 162 170 174 180 166 154 159 132 146 180 251 242
212 215 199 181 177 177 180 181 181 173 168 169 168 169 172 173 171 174 181 183 176 165 163 167 171 175 179 182 178 164 125 125 151 163 167 164 161 157 149 153 156 150 151 159 162 157 153 156 165 167 157 163 170 169 188 186 183 176 171 164 180 179 169 164 182 182 184 187 190 178 170 178 164 168 172 182 185 184 163 157 168 178 198 197 153
211 203 180 180 177 185 184 178 171 167 168 168 169 171 173 171 173 182 183 163 157 161 163 165 169 175 175 173 166 137 144 158 158 141 134 140 138 141 152 152 146 154 161 159 155 154 154 156 158 160 170 173 177 175 174 187 187 189 183 179 176 190 171 165 171 184 191 199 192 180 179 191 183 172 180 184 189 187 182 166 197 206 211 198 265
314 266 213 171 170 175 174 173 168 168 167 168 168 169 170 171 179 180 161 155 157 159 160 164 166 167 171 167 152 137 139 139 144 147 141 141 142 145 148 146 150 155 156 157 161 159 155 153 153 164 170 175 181 183 177 179 191 193 197 192 185 173 187 174 168 182 193 203 191 190 204 186 187 184 184 187 189 192 181 208 213 206 220 208 182
77 70 24 285 175 166 161 160 162 165 167 167 166 166 169 172 178 160 152 150 155 158 157 157 162 166 164 155 140 139 137 138 139 140 142 145 151 152 151 156 158 158 158 160 166 165 160 163 167 170 181 185 182 181 186 185 186 196 201 194 190 178 173 169 157 160 166 169 182 195 197 197 196 193 192 190 193 185 200 216 215 210 189 183 184
103 94 101 87 104 139 138 144 157 162 166 168 169 165 166 172 165 151 151 154 156 158 159 162 163 161 157 147 134 139 147 150 152 150 148 152 150 151 150 156 156 159 162 164 163 159 160 163 168 186 188 180 180 177 176 196 195 193 193 189 183 176 175 146 132 144 137 158 179 200 219 198 200 206 203 196 193 204 214 217 220 211 183 178 195
99 103 101 107 97 87 127 152 163 170 170 173 175 170 169 171 155 151 151 151 151 154 159 160 161 160 157 142 136 145 146 150 152 158 159 161 160 161 160 160 161 166 168 164 161 159 168 180 188 191 189 184 178 175 191 195 196 194 191 187 178 175 170 167 152 160 158 143 147 208 224 205 200 200 189 188 203 217 221 227 245 246 220 215 211
121 126 116 109 111 108 82 24 350 313 198 184 175 175 155 134 145 155 152 149 151 153 152 149 147 146 143 143 145 150 145 147 149 145 147 150 155 156 152 158 163 164 165 166 164 167 176 184 191 190 179 176 184 188 191 191 188 180 182 183 182 182 167 149 151 156 148 139 134 134 178 195 185 184 186 194 201 208 235 247 242 237 231 226 216
99 105 105 103 104 106 110 123 117 23 344 347 30 100 117 141 158 153 146 146 151 155 155 154 151 149 148 146 148 148 148 152 155 154 152 150 157 162 164 171 174 172 165 171 176 185 188 188 190 181 174 175 188 194 192 188 188 184 185 179 184 184 186 186 182 181 171 163 126 102 79 88 116 131 160 161 235 245 237 249 252 235 237 236 235
44 82 114 123 125 127 136 137 138 125 135 284 173 156 160 169 162 145 143 143 141 141 144 148 149 148 144 142 143 151 155 154 154 156 160 167 169 172 178 182 185 172 179 176 183 188 187 190 184 180 176 185 192 200 210 192 184 180 176 175 184 195 190 193 189 162 150 106 91 104 107 120 141 160 175 206 238 256 262 247 249 244 238 240 235
352 29 117 136 141 146 155 164 163 151 154 139 120 171 167 161 143 135 136 136 138 138 135 140 140 140 136 133 136 144 144 146 150 151 147 132 97 149 165 172 181 192 197 201 183 185 186 180 189 194 184 180 194 207 168 168 181 183 186 185 189 186 183 175 158 166 161 157 169 163 189 186 189 175 192 214 226 230 243 257 255 248 239 235 237
345 54 56 103 132 144 147 149 148 149 153 152 163 176 158 136 127 128 128 129 130 129 134 138 141 146 150 149 150 148 147 146 149 149 149 148 135 111 143 165 172 176 185 184 185 189 180 190 185 182 198 216 157 120 157 177 178 184 188 193 191 179 169 163 154 145 170 178 187 190 205 203 206 197 200 212 218 222 232 239 255 256 244 242 249